Time,TemperatureF,DewpointF,PressureIn,WindDirection,WindDirectionDegrees,WindSpeedMPH,WindSpeedGustMPH,Humidity,HourlyPrecipIn,Conditions,Clouds,dailyrainin,SoftwareType,DateUTC
2013-02-25 00:00:00,28.0,26.0,30.02,North,360,6.0,13.0,94,0.00,,,0.12,Rainwise IP-100,2013-02-25 05:00:00,
2013-02-25 00:05:00,28.0,26.0,30.02,North,360,3.0,9.0,94,0.00,,,0.00,Rainwise IP-100,2013-02-25 05:05:00,
2013-02-25 00:10:00,28.0,26.0,30.02,NW,315,2.0,6.0,94,0.00,,,0.00,Rainwise IP-100,2013-02-25 05:10:00,
2013-02-25 00:15:00,28.0,26.0,30.03,NW,315,6.0,9.0,94,0.00,,,0.00,Rainwise IP-100,2013-02-25 05:15:00,
2013-02-25 00:20:00,28.0,26.0,30.03,NW,315,3.0,7.0,94,0.00,,,0.00,Rainwise IP-100,2013-02-25 05:20:00,
2013-02-25 00:25:00,28.0,26.0,30.03,NW,315,5.0,9.0,94,0.00,,,0.00,Rainwise IP-100,2013-02-25 05:25:00,
2013-02-25 00:30:00,28.0,26.0,30.03,NW,315,5.0,6.0,94,0.00,,,0.00,Rainwise IP-100,2013-02-25 05:30:00,
2013-02-25 00:35:00,28.0,26.0,30.03,NW,315,4.0,9.0,94,0.00,,,0.00,Rainwise IP-100,2013-02-25 05:35:00,
2013-02-25 00:40:00,28.0,26.0,30.03,North,360,0.0,9.0,94,0.00,,,0.00,Rainwise IP-100,2013-02-25 05:40:00,
2013-02-25 00:45:00,28.0,26.0,30.03,NW,315,3.0,6.0,94,0.00,,,0.00,Rainwise IP-100,2013-02-25 05:45:00,
2013-02-25 00:50:00,28.0,26.0,30.03,NW,315,3.0,6.0,94,0.00,,,0.00,Rainwise IP-100,2013-02-25 05:50:00,
2013-02-25 00:55:00,28.0,26.0,30.04,WNW,292,9.0,10.0,94,0.00,,,0.00,Rainwise IP-100,2013-02-25 05:55:00,
2013-02-25 01:00:00,28.0,26.0,30.04,NW,315,5.0,11.0,94,0.00,,,0.00,Rainwise IP-100,2013-02-25 06:00:00,
2013-02-25 01:05:00,28.0,26.0,30.04,NNW,337,8.0,8.0,94,0.00,,,0.00,Rainwise IP-100,2013-02-25 06:05:00,
2013-02-25 01:10:00,28.0,26.0,30.04,NW,315,4.0,9.0,94,0.00,,,0.00,Rainwise IP-100,2013-02-25 06:10:00,
2013-02-25 01:15:00,28.0,26.0,30.04,WNW,292,6.0,6.0,94,0.00,,,0.00,Rainwise IP-100,2013-02-25 06:15:00,
2013-02-25 01:20:00,28.0,26.0,30.04,NW,315,7.0,9.0,94,0.00,,,0.00,Rainwise IP-100,2013-02-25 06:20:00,
2013-02-25 01:25:00,28.0,26.0,30.04,NW,315,6.0,8.0,94,0.00,,,0.00,Rainwise IP-100,2013-02-25 06:25:00,
2013-02-25 01:30:00,28.0,26.0,30.04,NW,315,5.0,8.0,94,0.00,,,0.00,Rainwise IP-100,2013-02-25 06:30:00,
2013-02-25 01:35:00,28.0,26.0,30.05,NW,315,4.0,6.0,94,0.00,,,0.00,Rainwise IP-100,2013-02-25 06:35:00,
2013-02-25 01:40:00,28.0,26.0,30.05,NNW,337,0.0,6.0,94,0.00,,,0.00,Rainwise IP-100,2013-02-25 06:40:00,
2013-02-25 01:45:00,28.0,26.0,30.05,NW,315,3.0,6.0,94,0.00,,,0.00,Rainwise IP-100,2013-02-25 06:45:00,
2013-02-25 01:50:00,28.0,26.0,30.05,NW,315,4.0,6.0,94,0.00,,,0.00,Rainwise IP-100,2013-02-25 06:50:00,
2013-02-25 01:55:00,28.0,26.0,30.05,SE,135,0.0,5.0,94,0.00,,,0.00,Rainwise IP-100,2013-02-25 06:55:00,
2013-02-25 02:00:00,28.0,26.0,30.05,South,180,5.0,6.0,94,0.00,,,0.00,Rainwise IP-100,2013-02-25 07:00:00,
2013-02-25 02:05:00,28.0,26.0,30.05,South,180,4.0,6.0,94,0.00,,,0.00,Rainwise IP-100,2013-02-25 07:05:00,
2013-02-25 02:10:00,28.0,26.0,30.05,NW,315,6.0,6.0,94,0.00,,,0.00,Rainwise IP-100,2013-02-25 07:10:00,
2013-02-25 02:15:00,28.0,26.0,30.05,WSW,247,2.0,6.0,94,0.00,,,0.00,Rainwise IP-100,2013-02-25 07:15:00,
2013-02-25 02:20:00,28.0,26.0,30.05,WSW,247,3.0,4.0,94,0.00,,,0.00,Rainwise IP-100,2013-02-25 07:20:00,
2013-02-25 02:25:00,28.0,26.0,30.06,SW,225,6.0,6.0,94,0.00,,,0.00,Rainwise IP-100,2013-02-25 07:25:00,
2013-02-25 02:30:00,28.0,26.0,30.06,SW,225,0.0,6.0,94,0.00,,,0.00,Rainwise IP-100,2013-02-25 07:30:00,
2013-02-25 02:35:00,28.0,26.0,30.07,SW,225,1.0,3.0,94,0.00,,,0.00,Rainwise IP-100,2013-02-25 07:35:00,
2013-02-25 02:40:00,28.0,26.0,30.07,NW,315,2.0,2.0,94,0.00,,,0.00,Rainwise IP-100,2013-02-25 07:40:00,
2013-02-25 02:45:00,28.0,26.0,30.07,WNW,292,4.0,5.0,94,0.00,,,0.00,Rainwise IP-100,2013-02-25 07:45:00,
2013-02-25 02:50:00,28.0,26.0,30.07,NW,315,0.0,5.0,94,0.00,,,0.00,Rainwise IP-100,2013-02-25 07:50:00,
2013-02-25 02:55:00,28.0,26.0,30.07,NW,315,0.0,0.0,94,0.00,,,0.00,Rainwise IP-100,2013-02-25 07:55:00,
2013-02-25 03:00:00,28.0,26.0,30.07,NW,315,0.0,1.0,94,0.00,,,0.00,Rainwise IP-100,2013-02-25 08:00:00,
2013-02-25 03:05:00,28.0,26.0,30.06,ESE,112,3.0,5.0,94,0.00,,,0.00,Rainwise IP-100,2013-02-25 08:05:00,
2013-02-25 03:10:00,28.0,26.0,30.06,South,180,4.0,5.0,94,0.00,,,0.00,Rainwise IP-100,2013-02-25 08:10:00,
2013-02-25 03:15:00,28.0,26.0,30.07,SSW,202,2.0,4.0,94,0.00,,,0.00,Rainwise IP-100,2013-02-25 08:15:00,
2013-02-25 03:20:00,28.0,26.0,30.07,SSW,202,4.0,4.0,94,0.00,,,0.00,Rainwise IP-100,2013-02-25 08:20:00,
2013-02-25 03:25:00,28.0,26.0,30.06,North,360,5.0,5.0,94,0.00,,,0.00,Rainwise IP-100,2013-02-25 08:25:00,
2013-02-25 03:30:00,28.0,26.0,30.06,NNW,337,4.0,8.0,94,0.00,,,0.00,Rainwise IP-100,2013-02-25 08:30:00,
2013-02-25 03:35:00,28.0,26.0,30.07,WSW,247,1.0,7.0,94,0.00,,,0.00,Rainwise IP-100,2013-02-25 08:35:00,
2013-02-25 03:40:00,28.0,26.0,30.07,WSW,247,0.0,4.0,94,0.00,,,0.00,Rainwise IP-100,2013-02-25 08:40:00,
2013-02-25 03:45:00,28.0,26.0,30.07,ESE,112,1.0,0.0,94,0.00,,,0.00,Rainwise IP-100,2013-02-25 08:45:00,
2013-02-25 03:50:00,28.0,26.0,30.07,ESE,112,1.0,3.0,94,0.00,,,0.00,Rainwise IP-100,2013-02-25 08:50:00,
2013-02-25 03:55:00,28.0,26.0,30.07,ESE,112,2.0,3.0,94,0.00,,,0.00,Rainwise IP-100,2013-02-25 08:55:00,
2013-02-25 04:00:00,28.0,26.0,30.07,SSE,157,4.0,4.0,94,0.00,,,0.00,Rainwise IP-100,2013-02-25 09:00:00,
2013-02-25 04:01:00,28.0,26.0,30.07,SSE,157,4.0,5.0,94,0.00,,,0.00,Rainwise IP-100,2013-02-25 09:01:00,
2013-02-25 04:03:00,28.0,26.0,30.07,SSE,157,4.0,5.0,94,0.00,,,0.00,Rainwise IP-100,2013-02-25 09:03:00,
2013-02-25 04:08:00,28.0,26.0,30.08,SSE,157,4.0,5.0,94,0.00,,,0.00,Rainwise IP-100,2013-02-25 09:08:00,
2013-02-25 04:13:00,28.0,26.0,30.08,SSE,157,4.0,5.0,94,0.00,,,0.00,Rainwise IP-100,2013-02-25 09:13:00,
2013-02-25 04:17:00,28.0,26.0,30.08,SSE,157,5.0,6.0,94,0.00,,,0.00,Rainwise IP-100,2013-02-25 09:17:00,
2013-02-25 04:22:00,28.0,26.0,30.08,SE,135,5.0,6.0,94,0.00,,,0.00,Rainwise IP-100,2013-02-25 09:22:00,
2013-02-25 04:27:00,28.0,26.0,30.08,SE,135,4.0,6.0,94,0.00,,,0.00,Rainwise IP-100,2013-02-25 09:27:00,
2013-02-25 04:32:00,28.0,26.0,30.08,SE,135,5.0,6.0,94,0.00,,,0.00,Rainwise IP-100,2013-02-25 09:32:00,
2013-02-25 04:37:00,28.0,26.0,30.08,SE,135,3.0,6.0,94,0.00,,,0.00,Rainwise IP-100,2013-02-25 09:37:00,
2013-02-25 04:42:00,28.0,26.0,30.08,SE,135,1.0,4.0,94,0.00,,,0.00,Rainwise IP-100,2013-02-25 09:42:00,
2013-02-25 04:47:00,28.0,26.0,30.08,SSW,202,1.0,4.0,94,0.00,,,0.00,Rainwise IP-100,2013-02-25 09:47:00,
2013-02-25 04:52:00,28.0,26.0,30.08,SW,225,1.0,5.0,94,0.00,,,0.00,Rainwise IP-100,2013-02-25 09:52:00,
2013-02-25 04:57:00,28.0,26.0,30.09,SW,225,2.0,4.0,94,0.00,,,0.00,Rainwise IP-100,2013-02-25 09:57:00,
2013-02-25 05:02:00,28.0,26.0,30.09,SW,225,0.0,2.0,94,0.00,,,0.00,Rainwise IP-100,2013-02-25 10:02:00,
2013-02-25 05:07:00,28.0,26.0,30.09,NW,315,2.0,7.0,94,0.00,,,0.00,Rainwise IP-100,2013-02-25 10:07:00,
2013-02-25 05:12:00,28.0,26.0,30.09,North,360,3.0,6.0,94,0.00,,,0.00,Rainwise IP-100,2013-02-25 10:12:00,
2013-02-25 05:17:00,28.0,26.0,30.09,North,360,0.0,5.0,94,0.00,,,0.00,Rainwise IP-100,2013-02-25 10:17:00,
2013-02-25 05:22:00,28.0,26.0,30.09,NNW,337,5.0,6.0,94,0.00,,,0.00,Rainwise IP-100,2013-02-25 10:22:00,
2013-02-25 05:27:00,28.0,26.0,30.09,NNW,337,2.0,6.0,94,0.00,,,0.00,Rainwise IP-100,2013-02-25 10:27:00,
2013-02-25 05:32:00,28.0,26.0,30.09,NNW,337,3.0,6.0,94,0.00,,,0.00,Rainwise IP-100,2013-02-25 10:32:00,
2013-02-25 05:37:00,28.0,26.0,30.09,North,360,6.0,7.0,94,0.00,,,0.00,Rainwise IP-100,2013-02-25 10:37:00,
2013-02-25 05:42:00,28.0,26.0,30.09,NNW,337,4.0,10.0,94,0.00,,,0.00,Rainwise IP-100,2013-02-25 10:42:00,
2013-02-25 05:47:00,28.0,26.0,30.09,NNW,337,6.0,7.0,94,0.00,,,0.00,Rainwise IP-100,2013-02-25 10:47:00,
2013-02-25 05:52:00,28.0,26.0,30.09,NW,315,3.0,8.0,94,0.00,,,0.00,Rainwise IP-100,2013-02-25 10:52:00,
2013-02-25 05:57:00,28.0,26.0,30.09,NNW,337,2.0,9.0,94,0.00,,,0.00,Rainwise IP-100,2013-02-25 10:57:00,
2013-02-25 06:02:00,28.0,26.0,30.09,NW,315,5.0,9.0,94,0.00,,,0.00,Rainwise IP-100,2013-02-25 11:02:00,
2013-02-25 06:07:00,28.0,26.0,30.10,NNW,337,4.0,8.0,94,0.00,,,0.00,Rainwise IP-100,2013-02-25 11:07:00,
2013-02-25 06:12:00,28.0,26.0,30.10,NNW,337,7.0,11.0,94,0.00,,,0.00,Rainwise IP-100,2013-02-25 11:12:00,
2013-02-25 06:17:00,28.0,26.0,30.10,NW,315,6.0,10.0,94,0.00,,,0.00,Rainwise IP-100,2013-02-25 11:17:00,
2013-02-25 06:22:00,28.0,26.0,30.10,North,360,9.0,9.0,94,0.00,,,0.00,Rainwise IP-100,2013-02-25 11:22:00,
2013-02-25 06:27:00,28.0,26.0,30.11,North,360,3.0,11.0,94,0.00,,,0.00,Rainwise IP-100,2013-02-25 11:27:00,
2013-02-25 06:32:00,28.0,26.0,30.11,North,360,5.0,7.0,94,0.00,,,0.00,Rainwise IP-100,2013-02-25 11:32:00,
2013-02-25 06:37:00,28.0,26.0,30.11,NNW,337,5.0,9.0,94,0.00,,,0.00,Rainwise IP-100,2013-02-25 11:37:00,
2013-02-25 06:42:00,28.0,26.0,30.11,North,360,6.0,9.0,94,0.00,,,0.00,Rainwise IP-100,2013-02-25 11:42:00,
2013-02-25 06:47:00,28.0,26.0,30.12,North,360,4.0,10.0,94,0.00,,,0.00,Rainwise IP-100,2013-02-25 11:47:00,
2013-02-25 06:52:00,28.0,26.0,30.12,North,360,5.0,7.0,94,0.00,,,0.00,Rainwise IP-100,2013-02-25 11:52:00,
2013-02-25 06:57:00,28.0,26.0,30.12,North,360,3.0,8.0,94,0.00,,,0.00,Rainwise IP-100,2013-02-25 11:57:00,
2013-02-25 07:02:00,28.0,26.0,30.12,NNW,337,3.0,6.0,94,0.00,,,0.00,Rainwise IP-100,2013-02-25 12:02:00,
2013-02-25 07:07:00,28.0,26.0,30.13,North,360,4.0,7.0,94,0.00,,,0.00,Rainwise IP-100,2013-02-25 12:07:00,
2013-02-25 07:12:00,28.0,26.0,30.13,North,360,5.0,6.0,94,0.00,,,0.00,Rainwise IP-100,2013-02-25 12:12:00,
2013-02-25 07:17:00,29.0,28.0,30.13,North,360,3.0,6.0,94,0.00,,,0.00,Rainwise IP-100,2013-02-25 12:17:00,
2013-02-25 07:22:00,29.0,28.0,30.13,North,360,4.0,6.0,94,0.00,,,0.00,Rainwise IP-100,2013-02-25 12:22:00,
2013-02-25 07:27:00,29.0,28.0,30.13,NNW,337,3.0,6.0,94,0.00,,,0.00,Rainwise IP-100,2013-02-25 12:27:00,
2013-02-25 07:32:00,29.0,28.0,30.13,NNW,337,5.0,9.0,94,0.00,,,0.00,Rainwise IP-100,2013-02-25 12:32:00,
2013-02-25 07:37:00,29.0,28.0,30.14,North,360,8.0,11.0,94,0.00,,,0.00,Rainwise IP-100,2013-02-25 12:37:00,
2013-02-25 07:42:00,29.0,28.0,30.14,North,360,6.0,13.0,94,0.00,,,0.00,Rainwise IP-100,2013-02-25 12:42:00,
2013-02-25 07:47:00,29.0,28.0,30.14,NNW,337,7.0,10.0,94,0.00,,,0.00,Rainwise IP-100,2013-02-25 12:47:00,
2013-02-25 07:52:00,29.0,28.0,30.14,North,360,4.0,10.0,94,0.00,,,0.00,Rainwise IP-100,2013-02-25 12:52:00,
2013-02-25 07:57:00,29.0,28.0,30.15,North,360,4.0,7.0,94,0.00,,,0.00,Rainwise IP-100,2013-02-25 12:57:00,
2013-02-25 08:02:00,29.0,28.0,30.15,North,360,2.0,9.0,94,0.00,,,0.00,Rainwise IP-100,2013-02-25 13:02:00,
2013-02-25 08:07:00,29.0,28.0,30.15,NNW,337,7.0,9.0,94,0.00,,,0.00,Rainwise IP-100,2013-02-25 13:07:00,
2013-02-25 08:12:00,29.0,28.0,30.15,NNW,337,9.0,10.0,94,0.00,,,0.00,Rainwise IP-100,2013-02-25 13:12:00,
2013-02-25 08:17:00,29.0,28.0,30.15,NNW,337,7.0,9.0,94,0.00,,,0.00,Rainwise IP-100,2013-02-25 13:17:00,
2013-02-25 08:22:00,29.0,28.0,30.15,North,360,6.0,9.0,94,0.00,,,0.00,Rainwise IP-100,2013-02-25 13:22:00,
2013-02-25 08:27:00,29.0,28.0,30.15,North,360,5.0,6.0,94,0.00,,,0.00,Rainwise IP-100,2013-02-25 13:27:00,
2013-02-25 08:32:00,29.0,28.0,30.15,North,360,1.0,6.0,94,0.00,,,0.00,Rainwise IP-100,2013-02-25 13:32:00,
2013-02-25 08:37:00,29.0,28.0,30.15,NNW,337,3.0,6.0,94,0.00,,,0.00,Rainwise IP-100,2013-02-25 13:37:00,
2013-02-25 08:42:00,29.0,28.0,30.15,NNW,337,1.0,5.0,94,0.00,,,0.00,Rainwise IP-100,2013-02-25 13:42:00,
2013-02-25 08:47:00,29.0,28.0,30.16,NNW,337,0.0,6.0,94,0.00,,,0.00,Rainwise IP-100,2013-02-25 13:47:00,
2013-02-25 08:52:00,29.0,28.0,30.16,NNW,337,2.0,4.0,94,0.00,,,0.00,Rainwise IP-100,2013-02-25 13:52:00,
2013-02-25 08:57:00,30.0,29.0,30.15,NNW,337,0.0,3.0,95,0.00,,,0.00,Rainwise IP-100,2013-02-25 13:57:00,
2013-02-25 09:02:00,30.0,29.0,30.15,North,360,1.0,1.0,95,0.00,,,0.00,Rainwise IP-100,2013-02-25 14:02:00,
2013-02-25 09:07:00,30.0,29.0,30.15,North,360,0.0,3.0,95,0.00,,,0.00,Rainwise IP-100,2013-02-25 14:07:00,
2013-02-25 09:12:00,30.0,29.0,30.15,ENE,67,3.0,4.0,95,0.00,,,0.00,Rainwise IP-100,2013-02-25 14:12:00,
2013-02-25 09:17:00,30.0,29.0,30.15,ENE,67,0.0,4.0,95,0.00,,,0.00,Rainwise IP-100,2013-02-25 14:17:00,
2013-02-25 09:22:00,30.0,29.0,30.15,ENE,67,0.0,1.0,95,0.00,,,0.00,Rainwise IP-100,2013-02-25 14:22:00,
2013-02-25 09:27:00,30.0,29.0,30.16,ENE,67,0.0,0.0,95,0.00,,,0.00,Rainwise IP-100,2013-02-25 14:27:00,
2013-02-25 09:32:00,30.0,29.0,30.16,East,90,0.0,2.0,95,0.00,,,0.00,Rainwise IP-100,2013-02-25 14:32:00,
2013-02-25 09:37:00,31.0,29.0,30.16,East,90,0.0,0.0,95,0.00,,,0.00,Rainwise IP-100,2013-02-25 14:37:00,
2013-02-25 09:42:00,30.0,29.0,30.16,East,90,3.0,4.0,95,0.00,,,0.00,Rainwise IP-100,2013-02-25 14:42:00,
2013-02-25 09:47:00,30.0,29.0,30.16,East,90,1.0,4.0,95,0.00,,,0.00,Rainwise IP-100,2013-02-25 14:47:00,
2013-02-25 09:52:00,30.0,29.0,30.16,East,90,1.0,4.0,95,0.00,,,0.00,Rainwise IP-100,2013-02-25 14:52:00,
2013-02-25 09:57:00,31.0,29.0,30.17,East,90,0.0,1.0,95,0.00,,,0.00,Rainwise IP-100,2013-02-25 14:57:00,
2013-02-25 10:02:00,31.0,29.0,30.17,East,90,0.0,1.0,95,0.00,,,0.00,Rainwise IP-100,2013-02-25 15:02:00,
2013-02-25 10:07:00,31.0,29.0,30.17,East,90,0.0,2.0,95,0.00,,,0.00,Rainwise IP-100,2013-02-25 15:07:00,
2013-02-25 10:12:00,31.0,29.0,30.17,East,90,0.0,3.0,95,0.00,,,0.00,Rainwise IP-100,2013-02-25 15:12:00,
2013-02-25 10:17:00,31.0,29.0,30.17,East,90,1.0,2.0,95,0.00,,,0.00,Rainwise IP-100,2013-02-25 15:17:00,
2013-02-25 10:22:00,31.0,29.0,30.17,East,90,3.0,4.0,95,0.00,,,0.00,Rainwise IP-100,2013-02-25 15:22:00,
2013-02-25 10:27:00,31.0,29.0,30.17,East,90,1.0,3.0,95,0.00,,,0.00,Rainwise IP-100,2013-02-25 15:27:00,
2013-02-25 10:32:00,31.0,29.0,30.17,East,90,2.0,3.0,95,0.00,,,0.00,Rainwise IP-100,2013-02-25 15:32:00,
2013-02-25 10:37:00,31.0,29.0,30.17,East,90,2.0,4.0,95,0.00,,,0.00,Rainwise IP-100,2013-02-25 15:37:00,
2013-02-25 10:42:00,31.0,29.0,30.17,East,90,3.0,3.0,95,0.00,,,0.00,Rainwise IP-100,2013-02-25 15:42:00,
2013-02-25 10:47:00,31.0,29.0,30.17,East,90,3.0,4.0,95,0.00,,,0.00,Rainwise IP-100,2013-02-25 15:47:00,
2013-02-25 10:52:00,31.0,29.0,30.17,East,90,2.0,3.0,95,0.00,,,0.01,Rainwise IP-100,2013-02-25 15:52:00,
2013-02-25 10:57:00,31.0,29.0,30.18,East,90,0.0,3.0,95,0.06,,,0.01,Rainwise IP-100,2013-02-25 15:57:00,
2013-02-25 11:02:00,32.0,31.0,30.18,East,90,0.0,1.0,95,0.06,,,0.01,Rainwise IP-100,2013-02-25 16:02:00,
2013-02-25 11:07:00,31.0,29.0,30.18,NE,45,4.0,7.0,95,0.00,,,0.01,Rainwise IP-100,2013-02-25 16:07:00,
2013-02-25 11:12:00,31.0,29.0,30.18,ENE,67,1.0,6.0,95,0.00,,,0.01,Rainwise IP-100,2013-02-25 16:12:00,
2013-02-25 11:17:00,32.0,31.0,30.18,ENE,67,3.0,5.0,95,0.00,,,0.01,Rainwise IP-100,2013-02-25 16:17:00,
2013-02-25 11:22:00,32.0,31.0,30.18,NNE,22,5.0,6.0,95,0.00,,,0.01,Rainwise IP-100,2013-02-25 16:22:00,
2013-02-25 11:27:00,32.0,31.0,30.18,NE,45,4.0,6.0,94,0.00,,,0.01,Rainwise IP-100,2013-02-25 16:27:00,
2013-02-25 11:32:00,32.0,31.0,30.18,North,360,4.0,5.0,95,0.00,,,0.01,Rainwise IP-100,2013-02-25 16:32:00,
2013-02-25 11:37:00,32.0,31.0,30.18,NE,45,3.0,5.0,94,0.00,,,0.01,Rainwise IP-100,2013-02-25 16:37:00,
2013-02-25 11:42:00,32.0,31.0,30.18,North,360,6.0,6.0,95,0.00,,,0.01,Rainwise IP-100,2013-02-25 16:42:00,
2013-02-25 11:47:00,32.0,31.0,30.18,NW,315,5.0,8.0,94,0.00,,,0.01,Rainwise IP-100,2013-02-25 16:47:00,
2013-02-25 11:52:00,32.0,31.0,30.18,NE,45,2.0,6.0,94,0.00,,,0.01,Rainwise IP-100,2013-02-25 16:52:00,
2013-02-25 11:57:00,32.0,31.0,30.18,NE,45,2.0,5.0,95,0.06,,,0.02,Rainwise IP-100,2013-02-25 16:57:00,
2013-02-25 12:02:00,32.0,31.0,30.18,North,360,5.0,6.0,95,0.06,,,0.02,Rainwise IP-100,2013-02-25 17:02:00,
2013-02-25 12:07:00,32.0,31.0,30.18,NNW,337,6.0,6.0,95,0.00,,,0.02,Rainwise IP-100,2013-02-25 17:07:00,
2013-02-25 12:12:00,32.0,31.0,30.18,NNW,337,6.0,7.0,94,0.00,,,0.02,Rainwise IP-100,2013-02-25 17:12:00,
2013-02-25 12:17:00,32.0,31.0,30.18,NNW,337,1.0,6.0,95,0.00,,,0.02,Rainwise IP-100,2013-02-25 17:17:00,
2013-02-25 12:22:00,32.0,31.0,30.18,NNW,337,6.0,6.0,94,0.00,,,0.02,Rainwise IP-100,2013-02-25 17:22:00,
2013-02-25 12:27:00,32.0,31.0,30.18,NNW,337,5.0,9.0,94,0.00,,,0.02,Rainwise IP-100,2013-02-25 17:27:00,
2013-02-25 12:32:00,32.0,31.0,30.18,NNW,337,7.0,7.0,94,0.00,,,0.02,Rainwise IP-100,2013-02-25 17:32:00,
2013-02-25 12:37:00,32.0,31.0,30.19,North,360,1.0,8.0,93,0.00,,,0.02,Rainwise IP-100,2013-02-25 17:37:00,
2013-02-25 12:42:00,32.0,31.0,30.19,North,360,3.0,4.0,94,0.00,,,0.02,Rainwise IP-100,2013-02-25 17:42:00,
2013-02-25 12:47:00,32.0,31.0,30.19,NW,315,6.0,7.0,94,0.00,,,0.02,Rainwise IP-100,2013-02-25 17:47:00,
2013-02-25 12:52:00,32.0,31.0,30.19,NNW,337,3.0,7.0,94,0.00,,,0.02,Rainwise IP-100,2013-02-25 17:52:00,
2013-02-25 12:57:00,32.0,31.0,30.19,NNW,337,1.0,5.0,94,0.00,,,0.02,Rainwise IP-100,2013-02-25 17:57:00,
2013-02-25 13:02:00,32.0,31.0,30.19,North,360,4.0,6.0,94,0.00,,,0.02,Rainwise IP-100,2013-02-25 18:02:00,
2013-02-25 13:07:00,33.0,32.0,30.18,NNW,337,3.0,5.0,93,0.00,,,0.02,Rainwise IP-100,2013-02-25 18:07:00,
2013-02-25 13:12:00,32.0,31.0,30.18,NNW,337,4.0,9.0,93,0.00,,,0.02,Rainwise IP-100,2013-02-25 18:12:00,
2013-02-25 13:17:00,32.0,31.0,30.19,NW,315,3.0,8.0,94,0.00,,,0.02,Rainwise IP-100,2013-02-25 18:17:00,
2013-02-25 13:22:00,32.0,31.0,30.19,NW,315,6.0,8.0,93,0.00,,,0.02,Rainwise IP-100,2013-02-25 18:22:00,
2013-02-25 13:27:00,32.0,31.0,30.19,NNW,337,5.0,9.0,93,0.00,,,0.02,Rainwise IP-100,2013-02-25 18:27:00,
2013-02-25 13:32:00,32.0,31.0,30.19,NW,315,6.0,10.0,92,0.00,,,0.02,Rainwise IP-100,2013-02-25 18:32:00,
2013-02-25 13:37:00,32.0,31.0,30.19,NNW,337,4.0,9.0,92,0.00,,,0.02,Rainwise IP-100,2013-02-25 18:37:00,
2013-02-25 13:42:00,32.0,31.0,30.19,NW,315,9.0,9.0,93,0.00,,,0.02,Rainwise IP-100,2013-02-25 18:42:00,
2013-02-25 13:47:00,32.0,31.0,30.19,NW,315,6.0,10.0,93,0.00,,,0.02,Rainwise IP-100,2013-02-25 18:47:00,
2013-02-25 13:52:00,32.0,31.0,30.19,NW,315,9.0,9.0,94,0.00,,,0.02,Rainwise IP-100,2013-02-25 18:52:00,
2013-02-25 13:57:00,32.0,31.0,30.20,NW,315,3.0,10.0,94,0.00,,,0.02,Rainwise IP-100,2013-02-25 18:57:00,
2013-02-25 14:02:00,32.0,31.0,30.20,NW,315,7.0,10.0,93,0.00,,,0.02,Rainwise IP-100,2013-02-25 19:02:00,
2013-02-25 14:07:00,32.0,31.0,30.21,NW,315,6.0,9.0,92,0.00,,,0.02,Rainwise IP-100,2013-02-25 19:07:00,
2013-02-25 14:12:00,32.0,31.0,30.21,NW,315,6.0,8.0,93,0.00,,,0.02,Rainwise IP-100,2013-02-25 19:12:00,
2013-02-25 14:17:00,32.0,31.0,30.21,NW,315,4.0,7.0,92,0.00,,,0.02,Rainwise IP-100,2013-02-25 19:17:00,
2013-02-25 14:22:00,32.0,31.0,30.21,NNW,337,5.0,8.0,93,0.00,,,0.02,Rainwise IP-100,2013-02-25 19:22:00,
2013-02-25 14:27:00,33.0,31.0,30.21,NNW,337,6.0,6.0,92,0.00,,,0.02,Rainwise IP-100,2013-02-25 19:27:00,
2013-02-25 14:32:00,33.0,31.0,30.21,North,360,4.0,7.0,92,0.00,,,0.02,Rainwise IP-100,2013-02-25 19:32:00,
2013-02-25 14:37:00,33.0,31.0,30.21,North,360,4.0,5.0,92,0.00,,,0.02,Rainwise IP-100,2013-02-25 19:37:00,
2013-02-25 14:42:00,33.0,31.0,30.21,NNW,337,4.0,7.0,91,0.00,,,0.02,Rainwise IP-100,2013-02-25 19:42:00,
2013-02-25 14:47:00,33.0,31.0,30.21,NNW,337,4.0,7.0,92,0.00,,,0.02,Rainwise IP-100,2013-02-25 19:47:00,
2013-02-25 14:52:00,33.0,31.0,30.21,NNW,337,3.0,7.0,92,0.00,,,0.02,Rainwise IP-100,2013-02-25 19:52:00,
2013-02-25 14:57:00,33.0,31.0,30.21,NNW,337,6.0,7.0,92,0.00,,,0.02,Rainwise IP-100,2013-02-25 19:57:00,
2013-02-25 15:02:00,33.0,31.0,30.21,NNW,337,3.0,7.0,92,0.00,,,0.02,Rainwise IP-100,2013-02-25 20:02:00,
2013-02-25 15:07:00,33.0,31.0,30.21,North,360,3.0,7.0,92,0.00,,,0.02,Rainwise IP-100,2013-02-25 20:07:00,
2013-02-25 15:12:00,33.0,31.0,30.21,North,360,3.0,4.0,92,0.00,,,0.02,Rainwise IP-100,2013-02-25 20:12:00,
2013-02-25 15:17:00,33.0,31.0,30.21,NNW,337,5.0,7.0,92,0.00,,,0.02,Rainwise IP-100,2013-02-25 20:17:00,
2013-02-25 15:22:00,33.0,31.0,30.21,NNW,337,5.0,7.0,92,0.00,,,0.02,Rainwise IP-100,2013-02-25 20:22:00,
2013-02-25 15:27:00,33.0,31.0,30.22,NNW,337,6.0,6.0,92,0.00,,,0.02,Rainwise IP-100,2013-02-25 20:27:00,
2013-02-25 15:32:00,33.0,31.0,30.22,NNW,337,0.0,6.0,92,0.00,,,0.02,Rainwise IP-100,2013-02-25 20:32:00,
2013-02-25 15:37:00,33.0,31.0,30.22,NE,45,4.0,6.0,91,0.00,,,0.02,Rainwise IP-100,2013-02-25 20:37:00,
2013-02-25 15:42:00,33.0,32.0,30.22,NE,45,1.0,6.0,93,0.00,,,0.02,Rainwise IP-100,2013-02-25 20:42:00,
2013-02-25 15:47:00,33.0,31.0,30.22,NE,45,0.0,2.0,92,0.00,,,0.02,Rainwise IP-100,2013-02-25 20:47:00,
2013-02-25 15:52:00,33.0,31.0,30.22,NW,315,0.0,2.0,92,0.00,,,0.02,Rainwise IP-100,2013-02-25 20:52:00,
2013-02-25 15:57:00,33.0,31.0,30.22,NNW,337,1.0,4.0,90,0.00,,,0.02,Rainwise IP-100,2013-02-25 20:57:00,
2013-02-25 16:02:00,33.0,31.0,30.22,NE,45,2.0,4.0,90,0.00,,,0.02,Rainwise IP-100,2013-02-25 21:02:00,
2013-02-25 16:07:00,33.0,31.0,30.23,NE,45,1.0,3.0,90,0.00,,,0.02,Rainwise IP-100,2013-02-25 21:07:00,
2013-02-25 16:12:00,32.0,29.0,30.23,NE,45,0.0,2.0,90,0.00,,,0.02,Rainwise IP-100,2013-02-25 21:12:00,
2013-02-25 16:17:00,33.0,31.0,30.23,NE,45,0.0,1.0,91,0.00,,,0.02,Rainwise IP-100,2013-02-25 21:17:00,
2013-02-25 16:22:00,33.0,31.0,30.23,NE,45,0.0,0.0,91,0.00,,,0.02,Rainwise IP-100,2013-02-25 21:22:00,
2013-02-25 16:27:00,32.0,29.0,30.23,NE,45,1.0,3.0,90,0.00,,,0.02,Rainwise IP-100,2013-02-25 21:27:00,
2013-02-25 16:32:00,32.0,29.0,30.23,NE,45,0.0,1.0,90,0.00,,,0.02,Rainwise IP-100,2013-02-25 21:32:00,
2013-02-25 16:37:00,32.0,29.0,30.23,NE,45,0.0,0.0,91,0.00,,,0.02,Rainwise IP-100,2013-02-25 21:37:00,
2013-02-25 16:42:00,32.0,29.0,30.23,NE,45,0.0,0.0,91,0.00,,,0.02,Rainwise IP-100,2013-02-25 21:42:00,
2013-02-25 16:47:00,32.0,29.0,30.23,NE,45,0.0,0.0,91,0.00,,,0.02,Rainwise IP-100,2013-02-25 21:47:00,
2013-02-25 16:52:00,32.0,29.0,30.23,NE,45,0.0,0.0,91,0.00,,,0.02,Rainwise IP-100,2013-02-25 21:52:00,
2013-02-25 16:57:00,32.0,31.0,30.23,NE,45,0.0,0.0,92,0.00,,,0.02,Rainwise IP-100,2013-02-25 21:57:00,
2013-02-25 17:02:00,32.0,31.0,30.23,NE,45,0.0,0.0,92,0.00,,,0.02,Rainwise IP-100,2013-02-25 22:02:00,
2013-02-25 17:07:00,32.0,31.0,30.23,NE,45,0.0,0.0,93,0.00,,,0.02,Rainwise IP-100,2013-02-25 22:07:00,
2013-02-25 17:12:00,32.0,31.0,30.23,NE,45,0.0,0.0,93,0.00,,,0.02,Rainwise IP-100,2013-02-25 22:12:00,
2013-02-25 17:17:00,32.0,31.0,30.24,NE,45,0.0,0.0,94,0.00,,,0.02,Rainwise IP-100,2013-02-25 22:17:00,
2013-02-25 17:22:00,32.0,31.0,30.24,NE,45,0.0,0.0,94,0.00,,,0.02,Rainwise IP-100,2013-02-25 22:22:00,
2013-02-25 17:27:00,31.0,29.0,30.23,NE,45,0.0,0.0,94,0.00,,,0.02,Rainwise IP-100,2013-02-25 22:27:00,
2013-02-25 17:32:00,31.0,29.0,30.23,NE,45,0.0,1.0,95,0.00,,,0.02,Rainwise IP-100,2013-02-25 22:32:00,
2013-02-25 17:37:00,31.0,29.0,30.24,NE,45,0.0,0.0,95,0.00,,,0.02,Rainwise IP-100,2013-02-25 22:37:00,
2013-02-25 17:42:00,31.0,29.0,30.24,NE,45,0.0,2.0,95,0.00,,,0.02,Rainwise IP-100,2013-02-25 22:42:00,
2013-02-25 17:47:00,31.0,29.0,30.24,NE,45,0.0,1.0,95,0.00,,,0.02,Rainwise IP-100,2013-02-25 22:47:00,
2013-02-25 17:52:00,31.0,29.0,30.24,NE,45,0.0,0.0,95,0.00,,,0.02,Rainwise IP-100,2013-02-25 22:52:00,
2013-02-25 17:57:00,31.0,29.0,30.25,NE,45,0.0,0.0,95,0.00,,,0.02,Rainwise IP-100,2013-02-25 22:57:00,
2013-02-25 18:02:00,30.0,29.0,30.25,NE,45,0.0,0.0,95,0.00,,,0.02,Rainwise IP-100,2013-02-25 23:02:00,
2013-02-25 18:07:00,30.0,29.0,30.25,NE,45,0.0,0.0,95,0.00,,,0.02,Rainwise IP-100,2013-02-25 23:07:00,
2013-02-25 18:12:00,30.0,29.0,30.25,NE,45,0.0,0.0,95,0.00,,,0.02,Rainwise IP-100,2013-02-25 23:12:00,
2013-02-25 18:17:00,30.0,29.0,30.25,NE,45,0.0,0.0,95,0.00,,,0.02,Rainwise IP-100,2013-02-25 23:17:00,
2013-02-25 18:22:00,30.0,29.0,30.25,SW,225,3.0,5.0,95,0.00,,,0.02,Rainwise IP-100,2013-02-25 23:22:00,
2013-02-25 18:27:00,30.0,29.0,30.25,SW,225,3.0,5.0,95,0.00,,,0.02,Rainwise IP-100,2013-02-25 23:27:00,
2013-02-25 18:32:00,30.0,29.0,30.25,SW,225,4.0,4.0,95,0.00,,,0.02,Rainwise IP-100,2013-02-25 23:32:00,
2013-02-25 18:37:00,30.0,29.0,30.26,South,180,4.0,4.0,95,0.00,,,0.02,Rainwise IP-100,2013-02-25 23:37:00,
2013-02-25 18:42:00,30.0,29.0,30.26,SSE,157,4.0,6.0,95,0.00,,,0.02,Rainwise IP-100,2013-02-25 23:42:00,
2013-02-25 18:47:00,30.0,29.0,30.26,SSE,157,4.0,6.0,95,0.00,,,0.02,Rainwise IP-100,2013-02-25 23:47:00,
2013-02-25 18:52:00,30.0,29.0,30.26,SSE,157,4.0,6.0,95,0.00,,,0.02,Rainwise IP-100,2013-02-25 23:52:00,
2013-02-25 18:57:00,30.0,29.0,30.26,SSE,157,2.0,5.0,95,0.00,,,0.02,Rainwise IP-100,2013-02-25 23:57:00,
2013-02-25 19:02:00,30.0,29.0,30.26,SSE,157,5.0,6.0,95,0.00,,,0.02,Rainwise IP-100,2013-02-26 00:02:00,
2013-02-25 19:07:00,30.0,29.0,30.26,SSE,157,5.0,5.0,95,0.00,,,0.02,Rainwise IP-100,2013-02-26 00:07:00,
2013-02-25 19:12:00,30.0,29.0,30.26,South,180,6.0,6.0,95,0.00,,,0.02,Rainwise IP-100,2013-02-26 00:12:00,
2013-02-25 19:17:00,30.0,29.0,30.27,South,180,6.0,7.0,95,0.00,,,0.02,Rainwise IP-100,2013-02-26 00:17:00,
2013-02-25 19:22:00,29.0,28.0,30.27,SSE,157,5.0,6.0,94,0.00,,,0.02,Rainwise IP-100,2013-02-26 00:22:00,
2013-02-25 19:27:00,29.0,28.0,30.28,SSE,157,5.0,6.0,94,0.00,,,0.02,Rainwise IP-100,2013-02-26 00:27:00,
2013-02-25 19:32:00,29.0,28.0,30.28,SSE,157,4.0,5.0,94,0.00,,,0.02,Rainwise IP-100,2013-02-26 00:32:00,
2013-02-25 19:37:00,29.0,28.0,30.27,SSE,157,4.0,5.0,94,0.00,,,0.02,Rainwise IP-100,2013-02-26 00:37:00,
2013-02-25 19:42:00,29.0,28.0,30.27,SSE,157,5.0,6.0,94,0.00,,,0.02,Rainwise IP-100,2013-02-26 00:42:00,
2013-02-25 19:47:00,29.0,28.0,30.28,South,180,4.0,6.0,94,0.00,,,0.02,Rainwise IP-100,2013-02-26 00:47:00,
2013-02-25 19:52:00,29.0,28.0,30.28,SSE,157,5.0,5.0,94,0.00,,,0.02,Rainwise IP-100,2013-02-26 00:52:00,
2013-02-25 19:57:00,29.0,28.0,30.27,SSE,157,1.0,5.0,94,0.00,,,0.02,Rainwise IP-100,2013-02-26 00:57:00,
2013-02-25 20:02:00,29.0,28.0,30.27,SSE,157,0.0,2.0,94,0.00,,,0.02,Rainwise IP-100,2013-02-26 01:02:00,
2013-02-25 20:07:00,29.0,28.0,30.28,SSW,202,4.0,4.0,94,0.00,,,0.02,Rainwise IP-100,2013-02-26 01:07:00,
2013-02-25 20:12:00,29.0,28.0,30.28,SSW,202,0.0,4.0,94,0.00,,,0.02,Rainwise IP-100,2013-02-26 01:12:00,
2013-02-25 20:17:00,28.0,26.0,30.28,SSW,202,0.0,1.0,94,0.00,,,0.02,Rainwise IP-100,2013-02-26 01:17:00,
2013-02-25 20:22:00,29.0,28.0,30.28,SSW,202,0.0,0.0,94,0.00,,,0.02,Rainwise IP-100,2013-02-26 01:22:00,
2013-02-25 20:27:00,28.0,26.0,30.28,South,180,0.0,0.0,94,0.00,,,0.02,Rainwise IP-100,2013-02-26 01:27:00,
2013-02-25 20:32:00,28.0,26.0,30.28,South,180,0.0,0.0,94,0.00,,,0.02,Rainwise IP-100,2013-02-26 01:32:00,
2013-02-25 20:37:00,28.0,26.0,30.28,South,180,0.0,0.0,94,0.00,,,0.02,Rainwise IP-100,2013-02-26 01:37:00,
2013-02-25 20:42:00,28.0,26.0,30.28,South,180,0.0,0.0,94,0.00,,,0.02,Rainwise IP-100,2013-02-26 01:42:00,
2013-02-25 20:47:00,28.0,26.0,30.29,South,180,0.0,0.0,94,0.00,,,0.02,Rainwise IP-100,2013-02-26 01:47:00,
2013-02-25 20:52:00,28.0,26.0,30.29,South,180,0.0,0.0,94,0.00,,,0.02,Rainwise IP-100,2013-02-26 01:52:00,
2013-02-25 20:57:00,29.0,28.0,30.28,South,180,2.0,2.0,94,0.00,,,0.02,Rainwise IP-100,2013-02-26 01:57:00,
2013-02-25 21:02:00,28.0,26.0,30.28,South,180,3.0,3.0,94,0.00,,,0.02,Rainwise IP-100,2013-02-26 02:02:00,
2013-02-25 21:07:00,28.0,26.0,30.29,South,180,2.0,5.0,94,0.00,,,0.02,Rainwise IP-100,2013-02-26 02:07:00,
2013-02-25 21:12:00,28.0,26.0,30.29,South,180,3.0,4.0,94,0.00,,,0.02,Rainwise IP-100,2013-02-26 02:12:00,
2013-02-25 21:17:00,28.0,26.0,30.29,South,180,4.0,5.0,94,0.00,,,0.02,Rainwise IP-100,2013-02-26 02:17:00,
2013-02-25 21:22:00,28.0,26.0,30.29,SSE,157,5.0,5.0,94,0.00,,,0.02,Rainwise IP-100,2013-02-26 02:22:00,
2013-02-25 21:27:00,28.0,26.0,30.28,SSE,157,4.0,5.0,94,0.00,,,0.02,Rainwise IP-100,2013-02-26 02:27:00,
2013-02-25 21:32:00,28.0,26.0,30.28,SSE,157,4.0,5.0,94,0.00,,,0.02,Rainwise IP-100,2013-02-26 02:32:00,
2013-02-25 21:37:00,28.0,26.0,30.29,SSE,157,3.0,4.0,94,0.00,,,0.02,Rainwise IP-100,2013-02-26 02:37:00,
2013-02-25 21:42:00,28.0,26.0,30.29,SSE,157,2.0,4.0,94,0.00,,,0.02,Rainwise IP-100,2013-02-26 02:42:00,
2013-02-25 21:47:00,28.0,26.0,30.29,SSE,157,2.0,3.0,94,0.00,,,0.02,Rainwise IP-100,2013-02-26 02:47:00,
2013-02-25 21:52:00,28.0,26.0,30.29,SSE,157,1.0,3.0,94,0.00,,,0.02,Rainwise IP-100,2013-02-26 02:52:00,
2013-02-25 21:57:00,27.0,26.0,30.29,SSE,157,0.0,2.0,94,0.00,,,0.02,Rainwise IP-100,2013-02-26 02:57:00,
2013-02-25 22:02:00,27.0,26.0,30.29,SSE,157,0.0,0.0,94,0.00,,,0.02,Rainwise IP-100,2013-02-26 03:02:00,
2013-02-25 22:07:00,27.0,26.0,30.29,SSE,157,0.0,0.0,94,0.00,,,0.02,Rainwise IP-100,2013-02-26 03:07:00,
2013-02-25 22:12:00,27.0,26.0,30.29,SSE,157,0.0,0.0,94,0.00,,,0.02,Rainwise IP-100,2013-02-26 03:12:00,
2013-02-25 22:17:00,27.0,26.0,30.30,SSE,157,0.0,1.0,94,0.00,,,0.02,Rainwise IP-100,2013-02-26 03:17:00,
2013-02-25 22:22:00,27.0,26.0,30.30,SSE,157,0.0,0.0,94,0.00,,,0.02,Rainwise IP-100,2013-02-26 03:22:00,
2013-02-25 22:27:00,27.0,26.0,30.30,SSE,157,2.0,2.0,94,0.00,,,0.02,Rainwise IP-100,2013-02-26 03:27:00,
2013-02-25 22:32:00,27.0,26.0,30.30,SSE,157,3.0,4.0,94,0.00,,,0.02,Rainwise IP-100,2013-02-26 03:32:00,
2013-02-25 22:37:00,27.0,26.0,30.31,SSE,157,1.0,3.0,94,0.00,,,0.02,Rainwise IP-100,2013-02-26 03:37:00,
2013-02-25 22:42:00,27.0,26.0,30.31,SSE,157,0.0,2.0,94,0.00,,,0.02,Rainwise IP-100,2013-02-26 03:42:00,
2013-02-25 22:47:00,28.0,26.0,30.30,SSE,157,1.0,1.0,94,0.00,,,0.02,Rainwise IP-100,2013-02-26 03:47:00,
2013-02-25 22:52:00,28.0,26.0,30.30,SSE,157,4.0,4.0,94,0.00,,,0.02,Rainwise IP-100,2013-02-26 03:52:00,
2013-02-25 22:57:00,28.0,26.0,30.30,SSE,157,1.0,5.0,94,0.00,,,0.02,Rainwise IP-100,2013-02-26 03:57:00,
2013-02-25 23:02:00,28.0,26.0,30.30,SSE,157,1.0,2.0,94,0.00,,,0.02,Rainwise IP-100,2013-02-26 04:02:00,
2013-02-25 23:07:00,28.0,26.0,30.30,SSE,157,1.0,2.0,94,0.00,,,0.02,Rainwise IP-100,2013-02-26 04:07:00,
2013-02-25 23:12:00,28.0,26.0,30.30,SSE,157,1.0,2.0,94,0.00,,,0.02,Rainwise IP-100,2013-02-26 04:12:00,
2013-02-25 23:17:00,28.0,26.0,30.30,SSE,157,1.0,2.0,94,0.00,,,0.02,Rainwise IP-100,2013-02-26 04:17:00,
2013-02-25 23:22:00,28.0,26.0,30.30,SSE,157,0.0,1.0,94,0.00,,,0.02,Rainwise IP-100,2013-02-26 04:22:00,
2013-02-25 23:27:00,28.0,26.0,30.30,SSE,157,0.0,0.0,94,0.00,,,0.02,Rainwise IP-100,2013-02-26 04:27:00,
2013-02-25 23:32:00,28.0,26.0,30.30,SSE,157,0.0,0.0,94,0.00,,,0.02,Rainwise IP-100,2013-02-26 04:32:00,
2013-02-25 23:37:00,28.0,26.0,30.30,SSE,157,0.0,0.0,94,0.00,,,0.02,Rainwise IP-100,2013-02-26 04:37:00,
2013-02-25 23:42:00,28.0,26.0,30.30,SSE,157,0.0,0.0,94,0.00,,,0.02,Rainwise IP-100,2013-02-26 04:42:00,
2013-02-25 23:47:00,28.0,26.0,30.30,SSE,157,0.0,0.0,94,0.00,,,0.02,Rainwise IP-100,2013-02-26 04:47:00,
2013-02-25 23:52:00,28.0,26.0,30.30,SSE,157,0.0,0.0,94,0.00,,,0.02,Rainwise IP-100,2013-02-26 04:52:00,
2013-02-25 23:57:00,28.0,26.0,30.30,SSE,157,0.0,0.0,94,0.00,,,0.02,Rainwise IP-100,2013-02-26 04:57:00,